Location: Julian California
(33.0790°N, 116.6010°W)
Time: 23:00:31
(UTC-07:00)

COSMOS 2455 - Pass Details

Date: 12 July 2018
Orbit: 902 x 908 km, 67.1° (Epoch: 23 September)

Event Time Altitude Azimuth Distance (km) Brightness Sun altitude
Rises 23:21:43 0° 321° (NW) 3,534 7.0 -31.0°
Reaches altitude 10° 23:24:32 10° 311° (NW) 2,589 5.9 -31.3°
Enters shadow 23:29:14 29° 259° (W) 1,612 4.2 -31.6°
